Temperature
9 9 9 9 9 8 8 8 8 8 8 8 8 8 8 8 8 8 8 8 8 8 8 8 8 7 7 6 6 6 6 6 6 7 7 7 7 7 8 8 8 8 8
9 9 9 9 9 9 8 8 8 8 8 8 8 8 8 8 8 8 8 8 8 8 8 8 8 7 7 6 6 6 6 6 6 6 6 6 6 7 7 7 7 7 7
9 9 9 9 9 9 9 8 8 8 8 8 8 8 8 8 8 8 7 7 7 7 7 8 8 7 7 7 6 6 6 6 6 6 6 6 6 6 6 6 6 7 7
9 9 9 9 9 9 9 9 8 8 8 8 8 8 8 8 8 8 7 7 7 7 7 7 7 7 7 7 6 6 6 6 5 5 5 5 5 5 5 6 6 6 6
10 9 9 9 9 9 9 9 8 8 8 8 8 8 8 8 8 8 7 7 7 7 7 6 6 6 6 6 5 5 5 5 5 4 4 4 4 5 5 5 5 5 5
10 9 9 9 9 9 9 8 8 8 8 8 8 8 8 8 8 7 7 7 7 6 6 6 6 6 6 5 5 5 4 4 4 4 4 4 4 4 4 4 4 4 5
10 10 9 9 9 9 9 8 8 8 8 8 8 8 8 8 7 7 7 7 6 6 5 5 5 5 5 5 5 5 4 3 3 3 3 3 3 3 3 3 3 4 4
10 10 10 9 9 9 9 9 8 8 8 7 7 7 7 7 7 7 7 6 6 5 5 5 5 4 5 5 5 4 4 3 3 2 2 2 2 2 2 3 3 3 4
10 10 10 9 9 9 9 9 8 8 7 7 7 6 6 6 6 6 6 5 5 5 5 4 4 4 4 4 4 4 4 3 2 2 2 2 2 2 2 2 2 2 3
10 10 9 9 9 9 9 8 8 8 7 7 6 6 5 5 4 5 5 5 5 4 4 4 4 4 4 3 3 3 3 2 2 1 1 1 1 1 1 1 1 2 2
10 10 10 9 9 9 9 8 8 8 7 7 6 6 6 5 4 3 4 5 5 4 4 4 4 3 3 3 3 2 2 2 1 1 1 1 1 1 0 1 1 1 1
10 10 10 9 9 9 8 8 8 7 7 7 6 6 5 5 4 3 3 3 4 4 4 4 3 3 2 2 2 1 1 1 0 0 0 -0 -0 -0 -0 -0 -0 -0 0
10 10 10 9 9 9 8 8 8 7 7 6 6 5 5 4 4 3 2 2 2 3 3 3 3 2 1 1 1 0 0 -0 -0 -1 -1 -1 -1 -1 -1 -1 -1 -1 -1
10 10 9 9 9 9 8 8 7 7 7 6 6 5 5 4 4 3 2 2 1 1 2 2 2 2 1 0 -0 -0 -1 -1 -1 -1 -2 -2 -2 -2 -2 -2 -2 -2 -2
10 10 9 9 9 8 8 7 7 7 6 6 5 5 4 4 3 3 2 1 0 -1 -0 1 1 1 -0 -1 -1 -1 -1 -1 -2 -2 -2 -2 -3 -3 -3 -3 -3 -3 -3
10 9 9 9 8 8 8 7 7 6 6 5 5 4 4 3 3 2 2 1 1 -0 -1 -0 -0 -0 -1 -1 -2 -2 -2 -2 -2 -2 -3 -3 -3 -3 -3 -3 -3 -3 -3
9 9 9 9 8 8 7 7 6 6 5 5 4 4 4 3 2 2 1 1 0 -0 -1 -1 -1 -1 -2 -2 -2 -3 -3 -3 -3 -3 -3 -3 -3 -3 -4 -4 -4 -4 -4
9 9 9 8 8 7 7 6 6 5 5 4 4 3 3 2 2 2 1 0 0 -1 -1 -2 -2 -2 -3 -3 -3 -3 -4 -4 -4 -4 -4 -4 -4 -4 -4 -4 -4 -4 -4
9 9 8 8 7 7 6 6 5 5 4 4 3 3 2 2 2 1 0 -0 -1 -1 -2 -3 -3 -3 -3 -3 -4 -4 -4 -4 -4 -5 -5 -5 -5 -5 -4 -4 -4 -4 -4
8 8 8 7 7 6 6 5 5 4 4 3 3 2 2 1 1 0 -0 -1 -1 -2 -2 -3 -3 -3 -4 -4 -4 -5 -5 -5 -5 -5 -5 -5 -5 -5 -5 -5 -5 -5 -5
8 8 7 7 6 6 5 5 4 4 3 3 2 2 1 1 0 -0 -1 -1 -2 -2 -3 -3 -4 -4 -4 -5 -5 -5 -5 -5 -5 -5 -5 -5 -5 -5 -5 -5 -5 -5 -5
7 7 7 6 6 5 5 4 4 3 2 2 2 1 1 0 -0 -1 -2 -2 -3 -3 -4 -4 -4 -5 -5 -5 -5 -5 -6 -6 -6 -5 -6 -6 -6 -6 -5 -5 -5 -5 -5
7 7 6 6 5 5 4 4 3 2 2 1 1 0 -0 -1 -1 -2 -2 -3 -3 -4 -4 -4 -5 -5 -5 -5 -5 -6 -6 -6 -6 -6 -6 -6 -6 -6 -6 -6 -6 -6 -6
6 6 6 5 5 4 4 3 2 2 1 1 0 -0 -1 -1 -2 -2 -3 -3 -4 -4 -4 -5 -5 -5 -5 -5 -6 -6 -6 -6 -6 -6 -6 -7 -6 -6 -6 -6 -6 -6 -6
6 5 5 4 4 3 3 2 1 1 0 0 -0 -1 -2 -2 -3 -3 -4 -4 -4 -4 -5 -5 -6 -6 -6 -6 -6 -6 -6 -6 -7 -7 -7 -7 -7 -7 -7 -6 -6 -6 -6
5 5 4 4 3 3 2 1 1 0 -0 -1 -1 -2 -2 -3 -3 -4 -4 -5 -5 -5 -5 -6 -6 -6 -6 -6 -6 -7 -7 -7 -7 -7 -7 -8 -8 -8 -8 -7 -7 -7 -7
Wind_Speed
4 3 3 3 1 0 1 2 4 4 4 5 6 6 7 7 7 5 1 1 1 3 6 8 9 9 9 10 10 11 11 12 13 14 14 15 15 15 15 15 15 15 15
5 3 2 3 2 2 2 3 3 3 3 3 5 7 6 7 7 8 2 1 2 2 4 6 7 8 9 10 11 12 12 13 14 15 15 15 16 16 16 17 17 17 17
7 5 3 2 2 2 1 2 4 4 3 3 3 6 6 7 6 6 5 2 3 3 2 3 5 8 9 10 11 12 13 14 15 15 16 16 17 17 17 18 18 18 18
8 6 3 2 3 2 1 1 1 2 3 3 4 4 5 6 5 5 5 3 3 4 2 0 3 6 9 11 12 13 14 15 15 16 16 17 17 18 19 19 19 19 20
9 6 4 3 5 3 1 0 1 1 2 3 4 4 4 3 3 3 3 2 3 2 1 2 2 5 8 11 13 14 15 15 16 17 17 18 18 19 19 20 20 20 21
9 7 4 4 4 2 1 0 1 1 1 2 4 5 5 4 2 1 1 2 1 1 1 2 3 5 8 12 14 15 16 16 17 17 18 19 19 20 20 21 21 21 22
10 7 4 4 3 2 2 1 2 2 2 2 3 4 5 3 1 1 1 1 2 2 3 4 4 5 7 11 13 15 16 17 17 18 19 19 20 21 21 22 22 22 23
10 8 5 4 4 2 2 2 2 1 1 2 2 2 4 5 3 2 2 1 2 3 4 6 6 6 8 9 11 14 16 17 18 19 20 21 21 21 22 23 23 23 24
10 8 7 5 4 3 3 3 3 2 0 1 2 2 1 2 4 4 3 2 2 2 3 6 7 7 8 9 10 12 16 17 19 20 21 22 22 23 23 23 24 24 24
10 9 8 7 5 3 4 3 3 2 2 0 1 0 2 2 1 4 5 3 4 4 5 4 6 8 9 9 10 13 16 18 19 21 22 23 23 24 24 25 25 25 25
9 9 9 7 5 4 4 4 3 2 2 2 1 0 1 1 2 3 5 5 5 4 5 5 6 8 10 11 11 12 16 18 20 22 23 24 25 25 26 26 26 26 26
5 7 9 7 6 4 4 4 3 3 2 2 1 2 2 2 3 3 5 6 6 5 6 5 5 7 11 11 12 15 17 19 21 23 24 25 25 26 27 27 27 27 27
5 7 6 5 5 5 6 5 3 3 3 3 3 2 2 3 3 3 4 6 6 5 5 5 4 7 10 11 11 15 17 20 22 24 25 25 26 27 27 28 28 28 28
7 8 7 7 7 7 6 5 3 4 3 4 4 4 3 4 3 3 4 4 7 6 4 6 4 6 9 11 13 16 15 20 23 25 26 27 27 27 27 28 28 28 28
7 8 8 7 6 7 6 5 4 4 4 4 4 4 4 4 4 4 4 4 5 8 7 5 4 5 10 14 16 15 14 20 24 26 27 27 27 27 28 28 28 28 28
8 9 8 7 7 6 6 5 4 4 4 4 4 5 5 4 5 5 5 5 6 7 9 5 5 6 9 13 18 17 16 24 25 26 28 28 28 28 28 29 29 29 29
9 9 9 8 7 7 6 5 5 5 5 5 5 6 7 6 5 5 5 5 6 7 12 10 6 6 7 8 11 15 17 17 19 25 28 29 29 29 29 29 29 29 29
9 9 8 8 7 7 6 6 6 6 6 6 6 6 7 6 7 6 6 7 7 7 9 13 8 6 8 8 8 8 12 17 17 23 27 28 28 28 29 29 30 29 29
8 8 8 7 7 7 6 6 6 5 5 6 6 6 7 7 8 7 7 7 7 8 7 10 11 7 6 7 8 9 10 9 16 20 23 25 26 28 29 30 30 29 28
8 8 7 7 7 6 6 5 5 5 5 5 6 7 7 8 9 9 8 8 7 7 7 8 10 9 7 7 7 8 9 7 9 13 18 21 24 27 28 29 29 29 28
8 7 7 6 6 5 6 6 5 6 6 7 7 8 9 12 15 13 10 8 7 7 7 8 10 10 9 7 7 7 10 9 8 8 8 10 11 11 15 23 26 27 27
7 7 7 7 6 6 9 11 8 6 6 7 8 9 10 12 15 20 21 19 15 10 8 9 10 11 12 9 8 9 9 10 9 4 5 9 8 10 9 13 22 26 26
6 6 6 6 7 7 10 11 12 7 6 7 8 8 9 9 13 9 14 18 16 20 19 13 12 12 12 11 10 11 10 11 11 7 7 10 7 9 9 16 24 25 24
6 6 6 6 6 7 10 12 12 7 7 8 9 9 9 9 9 10 8 8 9 10 13 11 10 12 12 11 11 12 12 10 9 7 6 9 8 8 10 9 21 22 21
5 5 5 6 6 7 10 11 11 5 6 8 9 9 10 9 16 19 12 9 9 9 15 20 22 21 24 24 19 9 7 8 10 7 4 5 6 7 7 8 12 17 19
4 4 4 5 6 6 9 10 11 5 7 7 7 8 13 15 18 19 11 9 10 10 10 12 14 16 14 16 20 10 6 8 8 6 3 3 5 5 6 4 5 7 11
Wind_Direction
177 183 184 181 200 222 279 285 294 318 326 326 327 322 320 318 317 321 313 160 76 0 346 343 344 345 346 347 347 346 344 340 337 335 334 332 329 327 325 321 315 311 308
173 174 187 179 192 219 261 285 304 327 320 330 323 316 315 329 337 340 352 134 111 67 7 357 355 355 353 354 351 347 343 338 334 331 328 325 323 321 319 318 316 311 307
177 180 184 182 192 206 259 328 343 339 326 332 328 331 339 331 328 336 358 67 114 115 70 18 3 353 350 348 343 340 336 332 328 325 323 321 319 317 314 312 310 309 307
185 184 173 176 166 132 82 24 350 347 339 347 338 331 328 325 334 342 347 6 92 104 124 136 350 343 343 340 337 334 332 329 326 323 321 319 317 314 311 309 307 305 303
186 172 166 161 140 125 117 285 70 45 355 349 332 318 310 307 313 331 348 48 86 103 162 214 276 318 328 332 331 330 328 327 325 322 320 318 315 313 310 308 306 303 301
174 167 156 144 135 131 152 4 33 40 36 6 334 314 295 273 263 5 7 45 49 315 335 324 308 315 324 324 326 327 327 326 325 324 322 319 316 313 311 308 306 303 300
165 158 146 148 137 140 145 101 65 30 26 25 1 327 312 289 122 96 27 17 343 350 339 329 331 337 335 326 325 323 324 324 324 324 322 320 317 315 312 309 306 304 302
159 158 158 151 139 134 116 98 90 50 3 56 65 2 343 342 354 343 326 313 331 350 334 325 325 327 328 323 321 320 321 321 322 322 321 319 318 316 313 311 309 306 304
154 156 161 148 139 141 142 132 119 120 50 356 91 113 67 297 317 312 310 316 332 324 309 304 303 312 315 314 314 314 313 315 317 319 319 319 317 315 313 311 309 307 306
156 159 157 145 142 139 141 142 127 130 127 258 349 127 196 192 245 308 311 313 326 310 300 299 300 296 293 294 297 303 307 309 312 315 316 316 315 314 313 311 309 308 306
157 158 155 147 147 143 141 138 134 143 151 175 185 233 290 309 225 229 284 302 311 295 299 295 289 285 283 279 278 288 300 305 309 312 312 313 312 311 311 310 309 307 306
155 157 155 154 155 146 145 148 155 168 180 191 203 206 201 220 242 244 264 289 295 290 294 282 277 274 275 273 273 288 297 303 306 308 309 309 309 308 308 307 307 305 304
162 166 156 161 158 154 154 154 164 183 192 200 217 227 223 229 235 242 264 281 289 293 288 282 273 284 287 284 283 290 294 299 303 305 305 306 306 305 304 304 304 303 302
167 162 163 167 162 159 160 163 175 194 196 207 225 227 232 241 241 236 242 269 292 291 279 277 294 290 298 300 296 295 290 298 301 302 303 304 304 303 302 301 301 301 300
157 156 162 164 163 163 167 169 190 202 199 212 221 229 234 238 238 238 235 227 248 283 287 271 278 291 306 301 300 299 294 300 302 304 304 304 304 303 302 301 300 299 298
150 156 165 167 166 169 175 182 196 205 205 220 218 226 239 241 241 239 237 237 231 251 275 267 268 279 293 298 301 308 307 305 305 304 302 301 302 302 302 301 300 299 298
155 163 169 169 173 179 184 190 202 208 216 229 231 232 242 242 244 245 243 243 245 247 271 279 267 277 286 291 298 299 301 300 298 300 300 299 300 301 302 302 302 300 299
162 166 168 172 179 185 188 196 209 213 219 232 239 242 250 253 252 250 249 250 252 251 264 282 285 281 281 284 285 288 298 299 296 298 299 300 300 301 302 303 302 301 300
164 165 168 178 185 188 195 206 212 219 227 235 242 248 254 256 261 261 259 259 260 267 266 279 287 284 282 283 288 289 286 288 293 297 299 299 299 299 301 302 302 302 301
165 170 177 182 185 189 199 210 218 228 241 249 251 251 254 254 258 262 265 262 264 269 273 278 285 288 285 281 282 287 291 281 284 293 294 295 297 299 300 301 301 302 301
170 172 175 182 186 190 204 209 217 228 238 252 257 255 256 258 261 266 268 262 259 266 273 278 283 288 287 286 281 281 289 289 279 276 281 287 292 290 293 295 297 297 296
170 173 181 188 198 207 217 222 221 223 233 244 256 259 260 263 268 274 276 278 275 272 273 274 281 282 283 280 281 283 287 292 291 267 279 290 288 287 287 288 293 296 298
175 183 190 196 208 219 225 233 237 235 239 249 257 263 270 270 276 266 274 279 280 280 281 281 281 281 283 281 280 281 278 281 285 284 291 290 284 285 288 296 301 303 304
182 190 199 206 214 228 234 241 246 240 244 253 258 263 267 269 268 274 263 262 258 265 273 277 271 273 276 275 269 275 280 282 279 277 275 285 290 288 295 295 300 303 306
190 196 201 209 220 236 240 245 248 236 246 255 259 263 268 268 278 284 281 272 271 268 281 284 285 287 290 293 294 291 287 291 293 289 268 272 289 297 292 288 297 309 315
189 192 208 218 227 240 250 251 251 238 251 260 262 264 275 282 287 289 283 274 278 277 276 281 284 287 288 289 293 287 276 281 287 288 276 289 295 311 301 282 297 313 314
Height
1551 1552 1553 1553 1553 1553 1553 1553 1553 1552 1552 1551 1550 1549 1548 1547 1546 1545 1543 1542 1540 1539 1538 1536 1535 1535 1534 1534 1533 1532 1531 1530 1529 1528 1527 1526 1525 1524 1523 1523 1522 1521 1521
1550 1551 1551 1552 1552 1552 1552 1552 1552 1551 1550 1549 1548 1548 1547 1545 1544 1543 1541 1540 1538 1537 1536 1535 1534 1533 1532 1531 1530 1529 1528 1527 1525 1524 1523 1522 1521 1520 1519 1518 1517 1517 1516
1548 1549 1550 1550 1551 1551 1550 1550 1550 1549 1548 1547 1546 1545 1544 1543 1542 1540 1539 1538 1536 1535 1534 1533 1532 1531 1530 1529 1528 1527 1525 1524 1522 1521 1519 1518 1517 1515 1514 1513 1513 1512 1511
1546 1547 1548 1548 1549 1549 1549 1548 1548 1547 1546 1545 1544 1543 1542 1540 1539 1538 1537 1536 1535 1533 1532 1531 1530 1529 1528 1527 1525 1524 1522 1520 1519 1517 1515 1514 1512 1511 1510 1509 1508 1507 1506
1544 1545 1546 1546 1547 1547 1547 1547 1546 1545 1544 1543 1542 1540 1539 1538 1537 1536 1535 1534 1533 1532 1531 1530 1528 1527 1526 1524 1522 1521 1519 1517 1515 1513 1511 1509 1508 1506 1505 1503 1502 1501 1500
1541 1543 1544 1544 1545 1545 1545 1545 1544 1543 1542 1541 1540 1538 1537 1535 1535 1534 1534 1533 1532 1531 1530 1528 1526 1525 1523 1521 1519 1517 1515 1513 1511 1509 1507 1505 1503 1501 1500 1498 1497 1496 1495
1538 1540 1541 1542 1542 1542 1542 1542 1542 1541 1540 1539 1537 1536 1535 1534 1533 1533 1532 1531 1530 1529 1528 1526 1524 1522 1520 1518 1516 1513 1511 1509 1507 1505 1502 1500 1498 1496 1494 1493 1491 1490 1489
1536 1537 1538 1539 1540 1540 1540 1540 1540 1539 1538 1537 1536 1534 1533 1533 1532 1532 1530 1529 1528 1527 1525 1523 1521 1519 1517 1514 1512 1509 1507 1505 1502 1500 1498 1495 1493 1491 1489 1487 1485 1484 1482
1533 1534 1535 1536 1537 1537 1537 1537 1537 1537 1536 1535 1535 1534 1533 1531 1530 1528 1527 1526 1525 1523 1522 1520 1518 1515 1513 1511 1508 1506 1503 1500 1498 1496 1493 1491 1488 1486 1484 1482 1479 1477 1476
1529 1531 1533 1533 1534 1535 1535 1535 1535 1534 1534 1533 1533 1532 1532 1531 1529 1525 1524 1523 1522 1520 1518 1516 1514 1511 1509 1506 1504 1501 1499 1496 1493 1491 1488 1485 1483 1480 1478 1475 1473 1471 1469
1526 1528 1529 1530 1531 1532 1532 1532 1532 1532 1531 1531 1530 1529 1528 1528 1526 1524 1520 1518 1516 1515 1514 1511 1509 1507 1504 1502 1499 1497 1494 1491 1489 1486 1483 1479 1477 1474 1471 1469 1466 1464 1461
1522 1524 1526 1527 1528 1528 1529 1529 1529 1529 1528 1528 1527 1526 1525 1524 1523 1521 1517 1513 1511 1509 1508 1506 1504 1502 1499 1497 1494 1492 1489 1486 1483 1480 1477 1474 1470 1467 1464 1462 1459 1456 1454
1518 1520 1522 1523 1524 1525 1525 1526 1526 1525 1525 1524 1524 1523 1522 1521 1519 1517 1514 1510 1506 1503 1501 1500 1499 1497 1495 1492 1489 1487 1484 1481 1478 1474 1471 1468 1464 1461 1458 1454 1452 1449 1446
1514 1516 1518 1519 1520 1521 1522 1522 1522 1522 1521 1521 1520 1519 1518 1517 1515 1513 1511 1507 1502 1497 1495 1494 1493 1492 1490 1487 1484 1481 1478 1475 1472 1468 1465 1461 1458 1454 1451 1448 1445 1442 1439
1510 1512 1514 1516 1517 1517 1518 1518 1518 1518 1517 1517 1516 1515 1513 1512 1510 1509 1507 1504 1501 1493 1487 1487 1486 1485 1484 1481 1478 1475 1472 1469 1465 1462 1458 1455 1451 1447 1444 1441 1438 1434 1431
1506 1508 1510 1512 1513 1513 1514 1514 1514 1513 1513 1512 1511 1510 1509 1507 1505 1503 1502 1500 1497 1492 1484 1480 1480 1479 1477 1474 1472 1469 1465 1462 1459 1455 1452 1448 1444 1441 1437 1434 1430 1427 1424
1502 1504 1506 1507 1508 1509 1510 1510 1509 1509 1508 1507 1506 1505 1503 1502 1500 1498 1496 1493 1491 1487 1480 1474 1474 1472 1470 1467 1464 1462 1458 1455 1451 1448 1444 1441 1437 1434 1430 1427 1423 1419 1416
1498 1500 1502 1503 1504 1505 1505 1505 1504 1504 1503 1502 1501 1499 1498 1496 1494 1492 1489 1487 1484 1481 1476 1469 1466 1465 1463 1461 1457 1454 1451 1448 1444 1441 1437 1434 1431 1427 1423 1420 1416 1412 1409
1494 1496 1497 1498 1499 1500 1500 1500 1499 1499 1498 1497 1495 1494 1492 1490 1487 1485 1483 1480 1477 1474 1471 1465 1459 1458 1455 1453 1450 1446 1443 1440 1437 1434 1431 1427 1424 1420 1417 1413 1409 1405 1402
1490 1491 1493 1494 1495 1495 1495 1495 1494 1493 1492 1491 1489 1488 1486 1483 1481 1478 1476 1473 1470 1467 1464 1459 1454 1450 1448 1446 1443 1439 1435 1432 1429 1427 1424 1420 1417 1413 1410 1406 1402 1398 1394
1485 1487 1488 1489 1490 1490 1490 1490 1489 1487 1486 1484 1483 1481 1479 1476 1474 1471 1469 1466 1463 1460 1456 1453 1448 1444 1440 1438 1436 1433 1428 1424 1421 1419 1415 1412 1409 1405 1401 1398 1394 1390 1387
1481 1482 1483 1484 1485 1485 1485 1484 1483 1481 1479 1477 1475 1473 1471 1469 1466 1464 1462 1459 1457 1454 1450 1446 1442 1438 1434 1432 1429 1426 1422 1418 1412 1412 1408 1404 1402 1397 1394 1390 1386 1383 1380
1476 1477 1478 1479 1479 1480 1479 1478 1477 1475 1472 1470 1468 1466 1463 1461 1459 1456 1453 1451 1449 1447 1445 1441 1436 1431 1428 1425 1423 1419 1416 1412 1407 1404 1402 1395 1394 1390 1387 1383 1380 1377 1374
1471 1473 1473 1474 1474 1474 1473 1472 1470 1468 1465 1463 1461 1459 1456 1453 1451 1449 1445 1442 1440 1438 1436 1433 1429 1425 1422 1419 1416 1413 1409 1404 1400 1398 1396 1391 1387 1384 1380 1377 1374 1372 1369
1467 1468 1469 1469 1469 1468 1467 1466 1464 1461 1458 1456 1454 1451 1449 1446 1444 1442 1438 1434 1431 1429 1427 1425 1422 1418 1415 1413 1411 1407 1402 1399 1393 1391 1390 1386 1381 1377 1374 1371 1369 1367 1364
1463 1463 1464 1464 1463 1462 1461 1460 1458 1454 1451 1448 1446 1444 1442 1439 1437 1434 1431 1427 1423 1420 1418 1415 1413 1410 1407 1405 1403 1400 1397 1393 1389 1385 1384 1382 1377 1374 1368 1365 1364 1362 1359